Tracking 31011 objects as of 13-Jul-2025
HD Live streaming from Space Station
objects crossing your sky now

DELTA 1 R/B(2)

Track DELTA 1 R/B(2) now!


NORAD ID: 1318
Int'l Code: 1965-028B
Perigee: 1,462.1 km
Apogee: 37,017.6 km
Inclination: 18.2 °
Period: 679.8 minutes
Semi major axis: 25610 km
RCS: 0.7392 m2 (medium)
Launch date: April 6, 1965
Source: United States (US)
Launch site: AIR FORCE EASTERN TEST RANGE (AFETR)

Note: This is a ROCKET BODY
Your satellite tracking list
Your tracking list is empty




NASA's NSSDC Master Catalog

Two Line Element Set (TLE):
1 01318U 65028B   25193.36936079 -.00000148  00000-0  00000-0 0  9991
2 01318  18.1863 358.8139 6941505 338.5406 257.2020  2.11819961100128
Source of the keplerian elements: AFSPC